Location: Campillo
(40.8621°N, 4.2488°W)
Time: 14:10:12
(UTC+00:00)

USA 306 - Pass Details

Date: 01 October 2021
Orbit: 564 x 573 km, 54.0° (Epoch: 24 September)

Event Time Altitude Azimuth Distance (km) Brightness Sun altitude
Rises 19:19:07 0° 312° (NW) 2,761 7.4 -16.0°
Reaches altitude 10° 19:21:24 10° 316° (NW) 1,863 6.3 -16.4°
Maximum altitude 19:25:35 59° 37° (NE) 654 3.0 -17.2°
Enters shadow 19:26:59 38° 99° (E) 877 3.3 -17.4°
